Mobridge, SD

5:30 PM CST on February 27, 2017 (GMT -0600)
Mobridge Municipal

Weather History for KMBG - December, 2002

Change the Weather History Date:

Tuesday, December 31, 2002

  Actual Average Record
Temperature  
Mean Temperature 21 °F 16 °F  
Max Temperature 32 °F 26 °F 53 °F (1953)
Min Temperature 10 °F 6 °F -27 °F (1967)
Degree Days  
Heating Degree Days 44 49  
Month to date heating degree days 1449  
Since 1 July heating degree days 3216  
Cooling Degree Days 0 0  
Month to date cooling degree days 0  
Year to date cooling degree days 644  
Moisture  
Dew Point 15 °F    
Average Humidity 73    
Maximum Humidity 88    
Minimum Humidity 56    
Precipitation  
Precipitation 0.00 in 0.02 in 0.35 in (1918)
Month to date precipitation 0.44  
Year to date precipitation 17.87  
Snow  
Snow 0.00 in - - ()
Month to date snowfall  
Since 1 July snowfall  
Snow Depth -    
Sea Level Pressure  
Sea Level Pressure 29.95 in    
Wind  
Wind Speed 8 mph (ESE)    
Max Wind Speed 20 mph    
Max Gust Speed 21 mph    
Visibility 10 miles    
Events      
T = Trace of Precipitation, MM = Missing Value Source: NWS Daily Summary

Daily Weather History Graph

Daily Weather History Graph

Search for Another Location

Airport or City:

Trip Planner

Search our weather history database for the weather conditions in past years. The results will help you decide how hot, cold, wet, or windy it might be!

Date:

Astronomy

Dec. 31, 2002 Rise Set
Actual Time 8:21 AM CST 5:07 PM CST
Civil Twilight 7:47 AM CST 5:41 PM CST
Nautical Twilight 7:10 AM CST 6:19 PM CST
Astronomical Twilight 6:34 AM CST 6:55 PM CST
Moon 6:09 AM CST (12/31) 3:08 PM CST (12/31)
Length of Visible Light 9h 53m
Length of Day
8h 45m
Waning Crescent, 6% of the Moon is Illuminated
Dec 31
Waning Crescent
Jan 2
New
Jan 10
First Quarter
Jan 18
Full
Jan 25
Last Quarter

Hourly Weather History & Observations

Time (CST) Temp. Windchill Dew Point Humidity Pressure Visibility Wind Dir Wind Speed Gust Speed Precip Events Conditions
12:55 AM 10.9 °F - 8.1 °F 88% 30.04 in 10.0 mi Calm Calm - N/A   Clear
1:55 AM 10.9 °F - 8.1 °F 88% 30.06 in 10.0 mi Calm Calm - N/A   Clear
2:55 AM 12.9 °F 5.2 °F 10.0 °F 88% 30.06 in 10.0 mi SE 4.6 mph - N/A   Clear
3:55 AM 15.1 °F 5.2 °F 10.9 °F 84% 30.06 in 10.0 mi ESE 6.9 mph - N/A   Clear
4:55 AM 15.1 °F 7.7 °F 12.0 °F 88% 30.04 in 10.0 mi East 4.6 mph - N/A   Clear
5:55 AM 12.0 °F - 9.0 °F 88% 30.03 in 10.0 mi Calm Calm - N/A   Clear
6:55 AM 16.0 °F 7.4 °F 12.0 °F 84% 30.03 in 10.0 mi East 5.8 mph - N/A   Clear
7:55 AM 14.0 °F 2.0 °F 10.0 °F 84% 30.03 in 10.0 mi ESE 9.2 mph - N/A   Clear
8:55 AM 16.0 °F 4.4 °F 10.9 °F 81% 30.02 in 10.0 mi East 9.2 mph - N/A   Clear
9:55 AM 21.0 °F 9.9 °F 16.0 °F 81% 29.99 in 10.0 mi SE 10.4 mph - N/A   Clear
10:55 AM 26.1 °F 16.2 °F 18.0 °F 71% 29.96 in 10.0 mi ESE 10.4 mph - N/A   Clear
11:55 AM 25.0 °F 13.1 °F 16.0 °F 69% 29.95 in 10.0 mi SSE 13.8 mph - N/A   Clear
12:55 PM 27.0 °F 16.7 °F 18.0 °F 69% 29.92 in 10.0 mi SSE 11.5 mph - N/A   Clear
1:55 PM 30.0 °F 18.3 °F 18.0 °F 61% 29.88 in 10.0 mi SE 17.3 mph - N/A   Clear
2:55 PM 30.0 °F 17.9 °F 18.0 °F 61% 29.86 in 10.0 mi ESE 18.4 mph - N/A   Partly Cloudy
3:55 PM 28.9 °F 17.3 °F 17.1 °F 61% 29.87 in 10.0 mi ESE 16.1 mph - N/A   Partly Cloudy
4:55 PM 28.0 °F 16.5 °F 17.1 °F 63% 29.87 in 10.0 mi East 15.0 mph - N/A   Mostly Cloudy
5:55 PM 26.1 °F 13.6 °F 18.0 °F 71% 29.87 in 10.0 mi ESE 16.1 mph - N/A   Overcast
6:55 PM 26.1 °F 12.3 °F 17.1 °F 69% 29.87 in 10.0 mi ESE 19.6 mph - N/A   Overcast
7:55 PM 28.0 °F 15.3 °F 18.0 °F 66% 29.86 in 10.0 mi ESE 18.4 mph - N/A   Overcast
8:55 PM 32.0 °F 22.1 °F 18.0 °F 56% 29.84 in 10.0 mi East 13.8 mph 20.7 mph N/A   Overcast
9:55 PM 30.9 °F 25.2 °F 17.1 °F 57% 29.85 in 10.0 mi South 5.8 mph - N/A   Overcast
10:55 PM 30.0 °F 18.7 °F 18.0 °F 61% 29.87 in 10.0 mi SE 16.1 mph - N/A   Overcast
11:55 PM 28.9 °F 16.9 °F 18.0 °F 64% 29.87 in 10.0 mi ESE 17.3 mph - N/A   Overcast